Regional Weather Roundup
Issued by NWS San Diego, CA

Home | Current Version | Previous Version | Text Only | Print | Product List | Glossary On
Versions: 1 2 3 4 5 6 7 8 9 10 11 12 13 14 15 16 17 18 19 20 21 22 23 24 25 26 27 28 29 30 31 32 33 34 35 36 37 38 39 40 41 42 43 44 45 46 47 48 49 50
000
ASUS46 KSGX 011511
RWRSGX

SAN DIEGO HOURLY WEATHER ROUNDUP
NATIONAL WEATHER SERVICE SAN DIEGO CA
800 AM PDT WED JUL 01 2015

NOTE: "FAIR" INDICATES FEW OR NO CLOUDS BELOW 12,000 FEET WITH NO
SIGNIFICANT WEATHER AND/OR OBSTRUCTIONS TO VISIBILITY.

CAZ042-043-060-061-PZZ750-775-011600-

GREATER SAN DIEGO AREA

CITY           SKY/WX    TMP DP  RH WIND       PRES   REMARKS
LINDBERGH FLD  CLOUDY    70  65  84 S6        29.94R
POINT LOMA       N/A     69  66  92 SW6         N/A
CHULA VISTA      N/A     69  67  93 CALM      29.86R
IMPERIAL BEACH CLOUDY    70  66  87 SW7       29.93R
BROWN FIELD    CLOUDY    72  67  84 CALM      29.93R
MIRAMAR MCAS   CLOUDY    76  65  68 SE3       29.93R
MONTGOMERY FLD CLOUDY    71  66  84 S3        29.93R

$$

NORTH SAN DIEGO COUNTY

CITY           SKY/WX    TMP DP  RH WIND       PRES   REMARKS
CAMP PENDLETON CLOUDY    71  66  84 CALM      29.93R HAZE
OCEANSIDE AP   CLOUDY    72  67  84 W3        29.91R
VISTA            N/A     70  65  83 CALM      29.90R
CARLSBAD       CLOUDY    71  67  87 CALM      29.92R FOG
DEL MAR          N/A     69  68  96 CALM      29.94R
FALLBROOK        N/A     71  71 100 CALM      29.93R
SAN MARCOS       N/A     72  67  84 CALM      29.89R
POWAY            N/A     74  70  87 CALM      29.92R

$$

EAST SAN DIEGO COUNTY

CITY           SKY/WX    TMP DP  RH WIND       PRES   REMARKS
RAMONA         CLOUDY    76  67  73 CALM      29.96R
SANTEE LAKES     N/A     73  69  89 CALM      29.91R
LA MESA          N/A     71  67  85 CALM      29.68R
JAMUL            N/A     73  69  88 CALM      29.90R
DESCANSO N       N/A     74  61  63 CALM      29.77R
CAMPO            N/A     73  65  75 CALM      29.98F

$$

ORANGE COUNTY AND THE LOS ANGELES BASIN

CITY           SKY/WX    TMP DP  RH WIND       PRES   REMARKS
JOHN WAYNE AP  CLOUDY    73  65  75 CALM      29.92R
SANTA ANA        N/A     73  67  81 CALM      29.86R
LOS ALAMITOS   PTSUNNY   72  66  79 SE3       29.91R
FULLERTON      PTSUNNY   74  63  68 CALM      29.90R
LONG BEACH     CLOUDY    75  63  66 VRB3      29.90R
L.A. AP        CLOUDY    68  64  87 W12       29.90S
L.A. DOWNTOWN  CLOUDY    75  64  68 CALM      29.88F

$$

THE INLAND EMPIRE

CITY           SKY/WX    TMP DP  RH WIND       PRES   REMARKS
CORONA         CLOUDY    77  58  51 CALM      29.92R
CHINO          PTSUNNY   77  60  55 VRB7      29.92R
ONTARIO        CLOUDY    79  55  43 SW3       29.92R
SAN BERNARDINO CLOUDY    77  50  38 W6        29.94R
RIVERSIDE AP   PTSUNNY   77  61  57 CALM      29.93R
MORENO VALLEY    N/A     79  60  52 CALM      29.92
MARCH ARB      PTSUNNY   76  64  67 SW3       29.95R
HORSETHIEF CYN   N/A     76  56  49 CALM      29.87R
PERRIS           N/A     74  68  80 CALM        N/A
MENIFEE          N/A     77  67  72 SW3       30.01
HEMET EAST       N/A     76  62  62 CALM      29.92R
FRENCH VALLEY  FAIR      73  66  78 SW6       29.96R
TEMECULA         N/A     73  68  84 CALM      29.90R

$$

SAN BERNARDINO AND RIVERSIDE COUNTY MOUNTAINS

CITY           SKY/WX    TMP DP  RH WIND       PRES   REMARKS
BIG BEAR AP    LGT RAIN  59  54  82 CALM      30.31R
ANGELUS OAKS     N/A     66  57  71 CALM      29.76R
PINE COVE        N/A     67  54  63 CALM      29.85R

$$

SOUTHERN DESERT INCLUDING THE COACHELLA VALLEY

CITY           SKY/WX    TMP DP  RH WIND       PRES   REMARKS
PALM SPRINGS   CLOUDY    86  69  56 E9        29.93R
THOUSAND PALMS   N/A     85  68  55 SE6       29.88R
PALM DESERT      N/A     86  71  60 CALM      27.58
THERMAL          N/A     87  71  58 CALM      29.85S
BLYTHE         PTSUNNY   86  69  56 SE13      29.88R
IMPERIAL AP    CLOUDY    86  68  54 NE8       29.83R
EL CENTRO NAS  CLOUDY    85  68  56 CALM      29.85R
YUMA AZ        CLOUDY    82  73  74 E7        29.85R
MEXICALI       CLOUDY    82  72  69 E15       29.87R

$$

UPPER DESERT

CITY           SKY/WX    TMP DP  RH WIND       PRES   REMARKS
VICTORVILLE AP CLOUDY    75  61  60 CALM      30.06R
HESPERIA         N/A     73  64  74 CALM      29.98R
APPLE VALLEY     N/A     75  62  64 CALM      30.11R
PALMDALE       CLOUDY    73  59  61 S3        30.07S
LANCASTER      CLOUDY    73  63  70 S8        30.04F
EDWARDS AFB    CLOUDY    75  64  68 N10       30.02R
DAGGETT        LGT RAIN  77  67  71 NW10      29.96R
29 PALMS N     CLOUDY    81  68  64 N6        30.05R THUNDER

$$

REGIONAL REPORTS

CITY           SKY/WX    TMP DP  RH WIND       PRES   REMARKS
SANTA BARBARA  PTSUNNY   65  61  87 W6        29.91F
SANDBERG       CLOUDY    71  55  56 NE8       30.16
LAS VEGAS NV   PTSUNNY   94  55  26 NW3       29.89S
PHOENIX AZ     MOSUNNY   88  66  48 E6        29.92R
TIJUANA        CLOUDY    72  63  73 E3        29.95R
ENSENADA NW      N/A     66  32  28 CALM      29.91R

$$

OFFSHORE ISLANDS

CITY           SKY/WX    TMP DP  RH WIND       PRES   REMARKS
CATALINA ARPT  CLOUDY    78  43  28 SW6       29.97S
SAN CLEMENTE I CLOUDY    65  61  87 S12       29.93S FOG
SAN NICOLAS IS PTSUNNY   61  53  75 VRB3      29.92F HAZE

$$

MARINE AND OFFSHORE BUOY REPORTS

STATION/POSITION SKY/WX   TEMP    WIND        PRES    SWELL
                          AIR SEA DIR/SP/G            HT/PER/DIR
                          (F)     (DEG/KT/KT) (MB)    (FT/S/D)
TANNER BANKS               60 62  320/  8/ 10 1013.3R   3/310/ 8
S CLEMENTE BASIN           64 67  280/  8/ 10 1012.8R   3/270/ 8
SAN NICOLAS IS.               63                N/A     2/180/13
SO. S. ROSA ISLA           59 61  310/  2/  4 1013.3R   3/ 8
W. S. BARBARA CH           57 60  230/  6/  8 1013.2R   5/300/ 7
M. S. BARBARA CH           59 64  270/  8/ 10 1013.8F
S. MONICA BASIN            65 66  250/  8/ 10 1012.6F   3/210/16
S PEDRO CHANNEL               67                N/A     2/160/14
DANA POINT                    65                N/A     2/190/17
OCEANSIDE OFFSHR              70                N/A     2/210/17
TORREY PINES OTR              70                N/A     2/210/17
LA JOLLA 1                 70 70  210/  4/  5 1012.4R
MISSION BAY BUOY              70                N/A     2/210/17
SAN DIEGO BAY                 72              1013.3R
POINT LOMA SOUTH              69                N/A     2/200/17

$$




USA.gov is the U.S. government's official web portal to all federal, state and local government web resources and services.